| time (UTC) | temp F | wind direction | speed MPH | gust MPH | rain 1hr in | rain 24hr in | rain mn in | humidity % | barometer mb |
| 20260901192546 | 99 | 174 | 3.0 | 14.0 | 0.00 | 0.00 | 0.00 | 35 | 1014.6 |
| 20260901192048 | 99 | 213 | 6.0 | 15.0 | 0.00 | 0.00 | 0.00 | 34 | 1014.8 |
| 20260901191634 | 100 | 221 | 8.0 | 15.0 | 0.00 | 0.00 | 0.00 | 34 | 1014.9 |
| 20260901191047 | 100 | 195 | 5.0 | 13.0 | 0.00 | 0.00 | 0.00 | 34 | 1014.9 |
| 20260901190543 | 101 | 186 | 2.0 | 12.0 | 0.00 | 0.00 | 0.00 | 36 | 1014.8 |
| 20260901190106 | 100 | 233 | 4.0 | 12.0 | 0.00 | 0.00 | 0.00 | 34 | 1015.0 |
| 20260901185546 | 100 | 221 | 6.0 | 14.0 | 0.00 | 0.00 | 0.00 | 34 | 1015.0 |
| 20260901185045 | 100 | 225 | 4.0 | 14.0 | 0.00 | 0.00 | 0.00 | 35 | 1014.9 |
| 20260901184557 | 100 | 220 | 5.0 | 14.0 | 0.00 | 0.00 | 0.00 | 36 | 1015.0 |
| 20260901184044 | 100 | 254 | 5.0 | 14.0 | 0.00 | 0.00 | 0.00 | 35 | 1015.1 |
| 20260901183546 | 99 | 316 | 2.0 | 14.0 | 0.00 | 0.00 | 0.00 | 37 | 1015.1 |
| 20260901183056 | 99 | 227 | 5.0 | 14.0 | 0.00 | 0.00 | 0.00 | 36 | 1015.1 |
| 20260901182544 | 99 | 217 | 3.0 | 16.0 | 0.00 | 0.00 | 0.00 | 38 | 1015.1 |
| 20260901182045 | 98 | 193 | 6.0 | 16.0 | 0.00 | 0.00 | 0.00 | 38 | 1015.3 |
| 20260901181619 | 98 | 205 | 4.0 | 16.0 | 0.00 | 0.00 | 0.00 | 38 | 1015.4 |
| 20260901181040 | 99 | 250 | 3.0 | 11.0 | 0.00 | 0.00 | 0.00 | 38 | 1015.3 |
| 20260901180541 | 99 | 245 | 4.0 | 11.0 | 0.00 | 0.00 | 0.00 | 38 | 1015.5 |
| 20260901180058 | 98 | 239 | 4.0 | 11.0 | 0.00 | 0.00 | 0.00 | 42 | 1015.6 |
| 20260901175543 | 97 | 199 | 2.0 | 11.0 | 0.00 | 0.00 | 0.00 | 43 | 1015.6 |
| 20260901175044 | 97 | 234 | 3.0 | 11.0 | 0.00 | 0.00 | 0.00 | 41 | 1015.7 |
| 20260901174557 | 97 | 171 | 2.0 | 15.0 | 0.00 | 0.00 | 0.00 | 44 | 1015.8 |
| 20260901174046 | 96 | 221 | 4.0 | 15.0 | 0.00 | 0.00 | 0.00 | 42 | 1015.9 |
| 20260901173547 | 97 | 178 | 4.0 | 15.0 | 0.00 | 0.00 | 0.00 | 41 | 1016.0 |
| 20260901173118 | 96 | 247 | 2.0 | 11.0 | 0.00 | 0.00 | 0.00 | 43 | 1016.1 |
| 20260901172547 | 96 | 274 | 4.0 | 11.0 | 0.00 | 0.00 | 0.00 | 43 | 1016.2 |
| 20260901172043 | 95 | 269 | 2.0 | 9.0 | 0.00 | 0.00 | 0.00 | 44 | 1016.3 |
| 20260901171606 | 95 | 328 | 2.0 | 10.0 | 0.00 | 0.00 | 0.00 | 45 | 1016.2 |
| 20260901171041 | 94 | 221 | 3.0 | 12.0 | 0.00 | 0.00 | 0.00 | 45 | 1016.3 |
| 20260901170542 | 94 | 209 | 4.0 | 12.0 | 0.00 | 0.00 | 0.00 | 43 | 1016.2 |
| 20260901170104 | 95 | 176 | 6.0 | 12.0 | 0.00 | 0.00 | 0.00 | 43 | 1016.3 |
| 20260901165544 | 94 | 191 | 2.0 | 7.0 | 0.00 | 0.00 | 0.00 | 45 | 1016.3 |
| 20260901165045 | 93 | 232 | 2.0 | 8.0 | 0.00 | 0.00 | 0.00 | 45 | 1016.4 |
| 20260901164618 | 94 | 267 | 3.0 | 11.0 | 0.00 | 0.00 | 0.00 | 44 | 1016.5 |
| 20260901164043 | 92 | 238 | 1.0 | 11.0 | 0.00 | 0.00 | 0.00 | 46 | 1016.5 |
| 20260901163541 | 92 | 228 | 2.0 | 10.0 | 0.00 | 0.00 | 0.00 | 46 | 1016.4 |
| 20260901163058 | 92 | 163 | 2.0 | 10.0 | 0.00 | 0.00 | 0.00 | 47 | 1016.4 |
| 20260901162541 | 92 | 196 | 2.0 | 10.0 | 0.00 | 0.00 | 0.00 | 47 | 1016.5 |
| 20260901162041 | 91 | 206 | 2.0 | 10.0 | 0.00 | 0.00 | 0.00 | 51 | 1016.5 |
| 20260901161557 | 91 | 344 | 2.0 | 6.0 | 0.00 | 0.00 | 0.00 | 47 | 1016.5 |
| 20260901161044 | 90 | 258 | 1.0 | 4.0 | 0.00 | 0.00 | 0.00 | 50 | 1016.5 |
| 20260901160544 | 90 | 263 | 0.0 | 9.0 | 0.00 | 0.00 | 0.00 | 52 | 1016.5 |
| 20260901160117 | 89 | 235 | 2.0 | 12.0 | 0.00 | 0.00 | 0.00 | 50 | 1016.5 |
| 20260901155544 | 90 | 217 | 4.0 | 12.0 | 0.00 | 0.00 | 0.00 | 49 | 1016.4 |
| 20260901155045 | 89 | 215 | 4.0 | 12.0 | 0.00 | 0.00 | 0.00 | 49 | 1016.2 |
| 20260901154600 | 89 | 243 | 2.0 | 10.0 | 0.00 | 0.00 | 0.00 | 52 | 1016.1 |
| 20260901154040 | 88 | 173 | 2.0 | 15.0 | 0.00 | 0.00 | 0.00 | 51 | 1016.1 |
| 20260901153541 | 88 | 234 | 3.0 | 15.0 | 0.00 | 0.00 | 0.00 | 52 | 1016.1 |
| 20260901153125 | 88 | 207 | 3.0 | 10.0 | 0.00 | 0.00 | 0.00 | 52 | 1016.2 |
| 20260901152543 | 88 | 219 | 3.0 | 12.0 | 0.00 | 0.00 | 0.00 | 52 | 1016.1 |
| 20260901152043 | 86 | 147 | 3.0 | 12.0 | 0.00 | 0.00 | 0.00 | 54 | 1016.2 |
| 20260901151600 | 86 | 209 | 3.0 | 12.0 | 0.00 | 0.00 | 0.00 | 54 | 1016.1 |
| 20260901151045 | 86 | 229 | 4.0 | 12.0 | 0.00 | 0.00 | 0.00 | 53 | 1016.1 |
| 20260901150543 | 86 | 127 | 4.0 | 12.0 | 0.00 | 0.00 | 0.00 | 54 | 1016.1 |
| 20260901150113 | 85 | 182 | 2.0 | 11.0 | 0.00 | 0.00 | 0.00 | 55 | 1016.2 |
| 20260901145544 | 84 | 227 | 2.0 | 11.0 | 0.00 | 0.00 | 0.00 | 56 | 1016.2 |
| 20260901145044 | 83 | 156 | 2.0 | 10.0 | 0.00 | 0.00 | 0.00 | 57 | 1016.2 |
| 20260901144606 | 83 | 227 | 3.0 | 9.0 | 0.00 | 0.00 | 0.00 | 56 | 1016.2 |
| 20260901144235 | 84 | 171 | 2.0 | 9.0 | 0.00 | 0.00 | 0.00 | 55 | 1016.3 |
| 20260901141600 | 81 | 0 | 1.0 | 7.0 | 0.00 | 0.00 | 0.00 | 61 | 1016.2 |
| 20260901141044 | 80 | 144 | 1.0 | 7.0 | 0.00 | 0.00 | 0.00 | 63 | 1016.3 |
| 20260901140543 | 80 | 212 | 1.0 | 8.0 | 0.00 | 0.00 | 0.00 | 64 | 1016.6 |
| 20260901140135 | 79 | 142 | 1.0 | 8.0 | 0.00 | 0.00 | 0.00 | 65 | 1016.6 |
| 20260901135546 | 79 | 122 | 3.0 | 8.0 | 0.00 | 0.00 | 0.00 | 65 | 1016.5 |
| 20260901135041 | 78 | 148 | 1.0 | 4.0 | 0.00 | 0.00 | 0.00 | 66 | 1016.7 |
| 20260901134602 | 78 | 0 | 1.0 | 4.0 | 0.00 | 0.00 | 0.00 | 66 | 1016.9 |
| 20260901134046 | 77 | 0 | 1.0 | 4.0 | 0.00 | 0.00 | 0.00 | 67 | 1016.8 |
| 20260901133540 | 77 | 192 | 0.0 | 2.0 | 0.00 | 0.00 | 0.00 | 68 | 1016.9 |
| 20260901133103 | 77 | 0 | 0.0 | 2.0 | 0.00 | 0.00 | 0.00 | 67 | 1016.8 |
| 20260901132543 | 77 | 0 | 0.0 | 3.0 | 0.00 | 0.00 | 0.00 | 67 | 1016.8 |
| 20260901132040 | 76 | 234 | 0.0 | 3.0 | 0.00 | 0.00 | 0.00 | 68 | 1016.6 |
| 20260901131558 | 76 | 227 | 0.0 | 2.0 | 0.00 | 0.00 | 0.00 | 70 | 1016.5 |
| 20260901131040 | 76 | 0 | 0.0 | 4.0 | 0.00 | 0.00 | 0.00 | 69 | 1016.6 |
| 20260901130544 | 76 | 0 | 1.0 | 4.0 | 0.00 | 0.00 | 0.00 | 68 | 1016.6 |
| 20260901130105 | 75 | 200 | 1.0 | 4.0 | 0.00 | 0.00 | 0.00 | 68 | 1016.5 |
| 20260901125545 | 75 | 0 | 0.0 | 2.0 | 0.00 | 0.00 | 0.00 | 70 | 1016.4 |
| 20260901125044 | 75 | 0 | 0.0 | 5.0 | 0.00 | 0.00 | 0.00 | 70 | 1016.2 |
| 20260901124601 | 74 | 191 | 0.0 | 6.0 | 0.00 | 0.00 | 0.00 | 70 | 1016.3 |
| 20260901124043 | 74 | 242 | 2.0 | 6.0 | 0.00 | 0.00 | 0.00 | 71 | 1016.2 |
| 20260901123540 | 74 | 0 | 2.0 | 6.0 | 0.00 | 0.00 | 0.00 | 71 | 1016.2 |
| 20260901123058 | 73 | 0 | 0.0 | 4.0 | 0.00 | 0.00 | 0.00 | 72 | 1016.1 |
| 20260901122540 | 73 | 0 | 0.0 | 3.0 | 0.00 | 0.00 | 0.00 | 72 | 1016.1 |
| 20260901122041 | 73 | 0 | 0.0 | 4.0 | 0.00 | 0.00 | 0.00 | 73 | 1016.1 |
| 20260901121607 | 73 | 26 | 0.0 | 4.0 | 0.00 | 0.00 | 0.00 | 73 | 1016.1 |
| 20260901121041 | 73 | 186 | 1.0 | 4.0 | 0.00 | 0.00 | 0.00 | 73 | 1016.0 |
| 20260901120541 | 72 | 225 | 0.0 | 3.0 | 0.00 | 0.00 | 0.00 | 73 | 1016.0 |
| 20260901120100 | 72 | 196 | 0.0 | 1.0 | 0.00 | 0.00 | 0.00 | 74 | 1016.0 |
| 20260901115543 | 72 | 0 | 0.0 | 2.0 | 0.00 | 0.00 | 0.00 | 74 | 1016.0 |
| 20260901115040 | 72 | 0 | 0.0 | 2.0 | 0.00 | 0.00 | 0.00 | 74 | 1015.9 |
| 20260901114558 | 72 | 0 | 0.0 | 2.0 | 0.00 | 0.00 | 0.00 | 74 | 1015.9 |
| 20260901114045 | 73 | 0 | 0.0 | 2.0 | 0.00 | 0.00 | 0.00 | 74 | 1015.9 |
| 20260901113540 | 73 | 210 | 0.0 | 1.0 | 0.00 | 0.00 | 0.00 | 73 | 1016.0 |
| 20260901113103 | 73 | 0 | 0.0 | 1.0 | 0.00 | 0.00 | 0.00 | 74 | 1016.0 |
| 20260901112541 | 73 | 0 | 0.0 | 1.0 | 0.00 | 0.00 | 0.00 | 73 | 1016.0 |
| 20260901112043 | 73 | 0 | 0.0 | 1.0 | 0.00 | 0.00 | 0.00 | 71 | 1016.0 |
| 20260901111602 | 74 | 0 | 0.0 | 3.0 | 0.00 | 0.00 | 0.00 | 71 | 1016.0 |
| 20260901111044 | 74 | 0 | 0.0 | 3.0 | 0.00 | 0.00 | 0.00 | 71 | 1015.9 |
| 20260901110543 | 74 | 0 | 0.0 | 2.0 | 0.00 | 0.00 | 0.00 | 71 | 1015.9 |
| 20260901105542 | 74 | 268 | 0.0 | 3.0 | 0.00 | 0.00 | 0.00 | 70 | 1015.9 |
| 20260901105046 | 74 | 243 | 0.0 | 3.0 | 0.00 | 0.00 | 0.00 | 71 | 1015.8 |
| 20260901104604 | 74 | 0 | 0.0 | 3.0 | 0.00 | 0.00 | 0.00 | 71 | 1015.8 |
| 20260901104040 | 74 | 0 | 0.0 | 2.0 | 0.00 | 0.00 | 0.00 | 72 | 1015.7 |
| 20260901103540 | 74 | 0 | 0.0 | 2.0 | 0.00 | 0.00 | 0.00 | 70 | 1015.8 |
| 20260901103102 | 74 | 0 | 0.0 | 2.0 | 0.00 | 0.00 | 0.00 | 70 | 1015.7 |
| 20260901102540 | 74 | 0 | 0.0 | 2.0 | 0.00 | 0.00 | 0.00 | 70 | 1015.6 |
| 20260901102040 | 75 | 0 | 0.0 | 3.0 | 0.00 | 0.00 | 0.00 | 69 | 1015.8 |
| 20260901101608 | 75 | 0 | 0.0 | 3.0 | 0.00 | 0.00 | 0.00 | 68 | 1015.6 |
| 20260901101043 | 75 | 247 | 0.0 | 4.0 | 0.00 | 0.00 | 0.00 | 67 | 1015.6 |
| 20260901100545 | 76 | 207 | 0.0 | 4.0 | 0.00 | 0.00 | 0.00 | 67 | 1015.5 |
| 20260901100101 | 76 | 232 | 0.0 | 4.0 | 0.00 | 0.00 | 0.00 | 66 | 1015.4 |
| 20260901095543 | 76 | 0 | 0.0 | 5.0 | 0.00 | 0.00 | 0.00 | 65 | 1015.3 |
| 20260901095043 | 77 | 215 | 1.0 | 5.0 | 0.00 | 0.00 | 0.00 | 65 | 1015.3 |
| 20260901094601 | 77 | 0 | 2.0 | 5.0 | 0.00 | 0.00 | 0.00 | 64 | 1015.2 |
| 20260901094042 | 77 | 188 | 1.0 | 5.0 | 0.00 | 0.00 | 0.00 | 64 | 1015.3 |
| 20260901093544 | 77 | 228 | 1.0 | 6.0 | 0.00 | 0.00 | 0.00 | 65 | 1015.3 |
| 20260901093111 | 77 | 169 | 1.0 | 6.0 | 0.00 | 0.00 | 0.00 | 65 | 1015.3 |
| 20260901092544 | 77 | 240 | 1.0 | 6.0 | 0.00 | 0.00 | 0.00 | 65 | 1015.2 |
| 20260901092040 | 77 | 184 | 2.0 | 6.0 | 0.00 | 0.00 | 0.00 | 64 | 1015.3 |
| 20260901091601 | 77 | 0 | 1.0 | 6.0 | 0.00 | 0.00 | 0.00 | 65 | 1015.3 |
| 20260901091044 | 77 | 210 | 1.0 | 6.0 | 0.00 | 0.00 | 0.00 | 64 | 1015.2 |
| 20260901090543 | 77 | 215 | 2.0 | 6.0 | 0.00 | 0.00 | 0.00 | 64 | 1015.1 |
| 20260901090108 | 77 | 263 | 1.0 | 5.0 | 0.00 | 0.00 | 0.00 | 65 | 1015.2 |
| 20260901085543 | 77 | 238 | 0.0 | 5.0 | 0.00 | 0.00 | 0.00 | 64 | 1015.2 |
| 20260901085045 | 77 | 0 | 2.0 | 5.0 | 0.00 | 0.00 | 0.00 | 63 | 1015.1 |
| 20260901084603 | 77 | 229 | 2.0 | 5.0 | 0.00 | 0.00 | 0.00 | 63 | 1015.0 |
| 20260901084040 | 77 | 196 | 0.0 | 7.0 | 0.00 | 0.00 | 0.00 | 64 | 1015.1 |
| 20260901083543 | 78 | 217 | 3.0 | 7.0 | 0.00 | 0.00 | 0.00 | 63 | 1015.1 |
| 20260901083102 | 77 | 207 | 1.0 | 7.0 | 0.00 | 0.00 | 0.00 | 63 | 1015.2 |
| 20260901082540 | 78 | 214 | 2.0 | 7.0 | 0.00 | 0.00 | 0.00 | 62 | 1014.9 |
| 20260901082048 | 78 | 202 | 2.0 | 6.0 | 0.00 | 0.00 | 0.00 | 62 | 1015.0 |
| 20260901081603 | 78 | 223 | 2.0 | 5.0 | 0.00 | 0.00 | 0.00 | 62 | 1014.9 |
| 20260901081043 | 78 | 222 | 1.0 | 7.0 | 0.00 | 0.00 | 0.00 | 62 | 1014.9 |
| 20260901080544 | 78 | 227 | 2.0 | 7.0 | 0.00 | 0.00 | 0.00 | 62 | 1014.9 |
| 20260901080207 | 78 | 201 | 1.0 | 7.0 | 0.00 | 0.00 | 0.00 | 62 | 1014.9 |
| 20260901075544 | 78 | 186 | 1.0 | 5.0 | 0.00 | 0.00 | 0.00 | 62 | 1014.9 |
| 20260901075044 | 78 | 215 | 1.0 | 5.0 | 0.00 | 0.00 | 0.00 | 62 | 1014.9 |
| 20260901074606 | 78 | 192 | 1.0 | 5.0 | 0.00 | 0.00 | 0.00 | 62 | 1014.9 |
| 20260901074043 | 78 | 0 | 1.0 | 5.0 | 0.00 | 0.00 | 0.00 | 62 | 1014.9 |
| 20260901073543 | 78 | 0 | 1.0 | 5.0 | 0.00 | 0.00 | 0.00 | 62 | 1014.9 |
| 20260901073105 | 78 | 245 | 0.0 | 4.0 | 0.00 | 0.00 | 0.00 | 62 | 1014.9 |
| 20260901072544 | 79 | 0 | 0.0 | 4.0 | 0.00 | 0.00 | 0.00 | 61 | 1014.9 |
| 20260901072048 | 79 | 171 | 1.0 | 4.0 | 0.00 | 0.00 | 0.00 | 61 | 1014.9 |
| 20260901071600 | 79 | 220 | 1.0 | 5.0 | 0.00 | 0.00 | 0.00 | 61 | 1014.9 |
| 20260901071042 | 79 | 214 | 1.0 | 5.0 | 0.00 | 0.00 | 0.00 | 61 | 1014.9 |
| 20260901070540 | 79 | 249 | 1.0 | 5.0 | 0.00 | 0.00 | 0.00 | 61 | 1015.0 |
| 20260901070132 | 79 | 190 | 1.0 | 7.0 | 0.00 | 0.00 | 0.00 | 61 | 1015.1 |
| 20260901065543 | 79 | 223 | 2.0 | 7.0 | 0.00 | 0.00 | 0.00 | 60 | 1015.1 |
| 20260901065045 | 79 | 229 | 1.0 | 5.0 | 0.00 | 0.00 | 0.00 | 60 | 1015.2 |
| 20260901064610 | 79 | 229 | 1.0 | 7.0 | 0.00 | 0.00 | 0.00 | 61 | 1015.1 |
| 20260901064042 | 80 | 0 | 1.0 | 7.0 | 0.00 | 0.00 | 0.00 | 60 | 1015.2 |
| 20260901063542 | 80 | 217 | 2.0 | 7.0 | 0.00 | 0.00 | 0.00 | 60 | 1015.3 |
| 20260901063105 | 80 | 215 | 1.0 | 5.0 | 0.00 | 0.00 | 0.00 | 60 | 1015.3 |
| 20260901062547 | 80 | 0 | 1.0 | 5.0 | 0.00 | 0.00 | 0.00 | 60 | 1015.3 |
| 20260901062040 | 80 | 239 | 1.0 | 5.0 | 0.00 | 0.00 | 0.00 | 60 | 1015.3 |
| 20260901061610 | 80 | 217 | 1.0 | 4.0 | 0.00 | 0.00 | 0.00 | 59 | 1015.4 |
| 20260901061044 | 80 | 211 | 1.0 | 5.0 | 0.00 | 0.00 | 0.00 | 59 | 1015.3 |
| 20260901060547 | 81 | 0 | 1.0 | 5.0 | 0.00 | 0.00 | 0.00 | 58 | 1015.3 |
| 20260901060101 | 81 | 219 | 2.0 | 5.0 | 0.00 | 0.00 | 0.00 | 58 | 1015.3 |
| 20260901055543 | 81 | 209 | 1.0 | 7.0 | 0.00 | 0.00 | 0.00 | 58 | 1015.3 |
| 20260901055043 | 81 | 215 | 2.0 | 7.0 | 0.00 | 0.00 | 0.00 | 57 | 1015.2 |
| 20260901054608 | 81 | 192 | 1.0 | 6.0 | 0.00 | 0.00 | 0.00 | 57 | 1015.1 |
| 20260901054040 | 82 | 0 | 1.0 | 5.0 | 0.00 | 0.00 | 0.00 | 57 | 1015.2 |
| 20260901053542 | 82 | 217 | 1.0 | 5.0 | 0.00 | 0.00 | 0.00 | 56 | 1015.2 |
| 20260901053110 | 82 | 0 | 2.0 | 7.0 | 0.00 | 0.00 | 0.00 | 56 | 1015.2 |
| 20260901052540 | 82 | 246 | 2.0 | 7.0 | 0.00 | 0.00 | 0.00 | 55 | 1015.2 |
| 20260901052043 | 83 | 239 | 1.0 | 9.0 | 0.00 | 0.00 | 0.00 | 55 | 1015.1 |
| 20260901051600 | 83 | 202 | 2.0 | 9.0 | 0.00 | 0.00 | 0.00 | 55 | 1015.2 |
| 20260901051043 | 83 | 229 | 1.0 | 4.0 | 0.00 | 0.00 | 0.00 | 55 | 1015.2 |
| 20260901050540 | 83 | 0 | 0.0 | 5.0 | 0.00 | 0.00 | 0.00 | 54 | 1015.1 |
| 20260901050059 | 83 | 205 | 1.0 | 5.0 | 0.00 | 0.00 | 0.00 | 54 | 1015.0 |
| 20260901045543 | 83 | 220 | 1.0 | 7.0 | 0.00 | 0.00 | 0.00 | 53 | 1015.1 |
| 20260901045040 | 84 | 202 | 1.0 | 7.0 | 0.00 | 0.00 | 0.00 | 53 | 1015.1 |
| 20260901044623 | 84 | 0 | 2.0 | 7.0 | 0.00 | 0.00 | 0.00 | 53 | 1015.0 |
| 20260901044040 | 84 | 193 | 1.0 | 7.0 | 0.00 | 0.00 | 0.00 | 53 | 1015.0 |
| 20260901043540 | 84 | 238 | 2.0 | 6.0 | 0.00 | 0.00 | 0.00 | 52 | 1015.0 |
| 20260901043102 | 84 | 254 | 2.0 | 5.0 | 0.00 | 0.00 | 0.00 | 52 | 1015.1 |
| 20260901042542 | 84 | 239 | 2.0 | 5.0 | 0.00 | 0.00 | 0.00 | 52 | 1015.0 |
| 20260901042043 | 84 | 0 | 2.0 | 5.0 | 0.00 | 0.00 | 0.00 | 52 | 1014.9 |
| 20260901041601 | 84 | 148 | 1.0 | 5.0 | 0.00 | 0.00 | 0.00 | 52 | 1015.0 |
| 20260901041042 | 84 | 0 | 1.0 | 6.0 | 0.00 | 0.00 | 0.00 | 52 | 1015.0 |
| 20260901040541 | 84 | 226 | 1.0 | 6.0 | 0.00 | 0.00 | 0.00 | 52 | 1014.9 |
| 20260901040105 | 84 | 163 | 2.0 | 6.0 | 0.00 | 0.00 | 0.00 | 52 | 1014.7 |
| 20260901035543 | 84 | 209 | 1.0 | 6.0 | 0.00 | 0.00 | 0.00 | 52 | 1014.7 |
| 20260901035043 | 84 | 0 | 1.0 | 5.0 | 0.00 | 0.00 | 0.00 | 53 | 1014.6 |
| 20260901034602 | 84 | 141 | 1.0 | 5.0 | 0.00 | 0.00 | 0.00 | 53 | 1014.6 |
| 20260901034041 | 84 | 228 | 1.0 | 5.0 | 0.00 | 0.00 | 0.00 | 54 | 1014.6 |
| 20260901033541 | 84 | 223 | 0.0 | 5.0 | 0.00 | 0.00 | 0.00 | 54 | 1014.6 |
| 20260901033059 | 84 | 211 | 0.0 | 6.0 | 0.00 | 0.00 | 0.00 | 54 | 1014.5 |
| 20260901032544 | 84 | 224 | 2.0 | 6.0 | 0.00 | 0.00 | 0.00 | 54 | 1014.5 |
| 20260901032041 | 85 | 188 | 1.0 | 6.0 | 0.00 | 0.00 | 0.00 | 54 | 1014.4 |
| 20260901031600 | 85 | 217 | 1.0 | 6.0 | 0.00 | 0.00 | 0.00 | 54 | 1014.5 |
| 20260901031042 | 85 | 209 | 0.0 | 5.0 | 0.00 | 0.00 | 0.00 | 54 | 1014.4 |
| 20260901030541 | 85 | 187 | 1.0 | 4.0 | 0.00 | 0.00 | 0.00 | 54 | 1014.3 |
| 20260901030056 | 85 | 197 | 1.0 | 4.0 | 0.00 | 0.00 | 0.00 | 55 | 1014.3 |
| 20260901025541 | 85 | 153 | 1.0 | 4.0 | 0.00 | 0.00 | 0.00 | 55 | 1014.3 |
| 20260901025044 | 85 | 0 | 0.0 | 0.0 | 0.00 | 0.00 | 0.00 | 55 | 1014.2 |
| 20260901024601 | 85 | 0 | 0.0 | 0.0 | 0.00 | 0.00 | 0.00 | 56 | 1014.3 |
| 20260901024042 | 85 | 0 | 0.0 | 0.0 | 0.00 | 0.00 | 0.00 | 56 | 1014.2 |
| 20260901023539 | 85 | 0 | 0.0 | 0.0 | 0.00 | 0.00 | 0.00 | 56 | 1014.1 |
| 20260901023102 | 85 | 0 | 0.0 | 1.0 | 0.00 | 0.00 | 0.00 | 57 | 1014.1 |
| 20260901022540 | 85 | 0 | 0.0 | 1.0 | 0.00 | 0.00 | 0.00 | 57 | 1014.1 |
| 20260901022040 | 85 | 0 | 0.0 | 0.0 | 0.00 | 0.00 | 0.00 | 57 | 1014.0 |
| 20260901021611 | 86 | 0 | 0.0 | 0.0 | 0.00 | 0.00 | 0.00 | 57 | 1013.9 |
| 20260901021041 | 86 | 0 | 0.0 | 0.0 | 0.00 | 0.00 | 0.00 | 57 | 1013.8 |
| 20260901020541 | 86 | 0 | 0.0 | 0.0 | 0.00 | 0.00 | 0.00 | 56 | 1013.9 |
| 20260901020057 | 86 | 0 | 0.0 | 0.0 | 0.00 | 0.00 | 0.00 | 56 | 1013.8 |
| 20260901015541 | 86 | 0 | 0.0 | 1.0 | 0.00 | 0.00 | 0.00 | 56 | 1013.8 |
| 20260901015041 | 86 | 0 | 0.0 | 1.0 | 0.00 | 0.00 | 0.00 | 56 | 1013.8 |
| 20260901014604 | 86 | 0 | 0.0 | 1.0 | 0.00 | 0.00 | 0.00 | 56 | 1013.7 |
| 20260901014041 | 87 | 0 | 0.0 | 0.0 | 0.00 | 0.00 | 0.00 | 56 | 1013.6 |
| 20260901013541 | 87 | 0 | 0.0 | 0.0 | 0.00 | 0.00 | 0.00 | 56 | 1013.6 |
| 20260901013119 | 87 | 0 | 0.0 | 0.0 | 0.00 | 0.00 | 0.00 | 55 | 1013.6 |
| 20260901012541 | 87 | 0 | 0.0 | 0.0 | 0.00 | 0.00 | 0.00 | 55 | 1013.6 |
| 20260901012045 | 88 | 0 | 0.0 | 0.0 | 0.00 | 0.00 | 0.00 | 55 | 1013.5 |
| 20260901011559 | 88 | 0 | 0.0 | 0.0 | 0.00 | 0.00 | 0.00 | 55 | 1013.6 |
| 20260901011040 | 88 | 0 | 0.0 | 0.0 | 0.00 | 0.00 | 0.00 | 54 | 1013.5 |
| 20260901010546 | 89 | 0 | 0.0 | 0.0 | 0.00 | 0.00 | 0.00 | 54 | 1013.5 |
| 20260901010106 | 89 | 0 | 0.0 | 0.0 | 0.00 | 0.00 | 0.00 | 53 | 1013.5 |
| 20260901005542 | 90 | 0 | 0.0 | 0.0 | 0.00 | 0.00 | 0.00 | 52 | 1013.5 |
| 20260901005040 | 90 | 0 | 0.0 | 1.0 | 0.00 | 0.00 | 0.00 | 52 | 1013.4 |
| 20260901004605 | 91 | 0 | 0.0 | 1.0 | 0.00 | 0.00 | 0.00 | 51 | 1013.4 |
| 20260901004045 | 91 | 0 | 0.0 | 1.0 | 0.00 | 0.00 | 0.00 | 50 | 1013.4 |
| 20260901003543 | 92 | 0 | 0.0 | 2.0 | 0.00 | 0.00 | 0.00 | 49 | 1013.3 |
| 20260901003102 | 92 | 0 | 0.0 | 2.0 | 0.00 | 0.00 | 0.00 | 49 | 1013.3 |
| 20260901002543 | 92 | 0 | 0.0 | 2.0 | 0.00 | 0.00 | 0.00 | 48 | 1013.2 |
| 20260901002040 | 93 | 0 | 0.0 | 3.0 | 0.00 | 0.00 | 0.00 | 47 | 1013.3 |
| 20260901001605 | 93 | 0 | 0.0 | 3.0 | 0.00 | 0.00 | 0.00 | 47 | 1013.1 |
| 20260901001047 | 94 | 0 | 0.0 | 3.0 | 0.00 | 0.00 | 0.00 | 46 | 1013.2 |
| 20260901000540 | 94 | 0 | 0.0 | 3.0 | 0.00 | 0.00 | 0.00 | 45 | 1013.3 |
| 20260831235540 | 95 | 0 | 0.0 | 3.0 | 0.00 | 0.00 | 0.00 | 44 | 1013.4 |
| 20260831235044 | 95 | 0 | 0.0 | 6.0 | 0.00 | 0.00 | 0.00 | 43 | 1013.3 |
| 20260831234602 | 96 | 0 | 0.0 | 6.0 | 0.00 | 0.00 | 0.00 | 43 | 1013.3 |
| 20260831234040 | 96 | 198 | 0.0 | 4.0 | 0.00 | 0.00 | 0.00 | 42 | 1013.3 |
| 20260831233543 | 96 | 226 | 0.0 | 5.0 | 0.00 | 0.00 | 0.00 | 42 | 1013.3 |
| 20260831233102 | 97 | 219 | 0.0 | 6.0 | 0.00 | 0.00 | 0.00 | 41 | 1013.2 |
| 20260831232545 | 97 | 180 | 1.0 | 6.0 | 0.00 | 0.00 | 0.00 | 41 | 1013.2 |
| 20260831232042 | 97 | 130 | 1.0 | 7.0 | 0.00 | 0.00 | 0.00 | 41 | 1013.2 |
| 20260831231623 | 98 | 0 | 1.0 | 8.0 | 0.00 | 0.00 | 0.00 | 41 | 1013.3 |
| 20260831231040 | 98 | 202 | 2.0 | 8.0 | 0.00 | 0.00 | 0.00 | 40 | 1013.1 |
| 20260831230540 | 98 | 207 | 1.0 | 9.0 | 0.00 | 0.00 | 0.00 | 41 | 1013.3 |
| 20260831230104 | 98 | 0 | 1.0 | 9.0 | 0.00 | 0.00 | 0.00 | 40 | 1013.3 |
| 20260831225543 | 98 | 211 | 3.0 | 9.0 | 0.00 | 0.00 | 0.00 | 39 | 1013.4 |
| 20260831225040 | 98 | 236 | 3.0 | 9.0 | 0.00 | 0.00 | 0.00 | 39 | 1013.4 |
| 20260831224637 | 98 | 175 | 2.0 | 10.0 | 0.00 | 0.00 | 0.00 | 39 | 1013.3 |
| 20260831224040 | 98 | 0 | 3.0 | 10.0 | 0.00 | 0.00 | 0.00 | 38 | 1013.3 |
| 20260831223543 | 99 | 213 | 0.0 | 10.0 | 0.00 | 0.00 | 0.00 | 39 | 1013.3 |
| 20260831223102 | 99 | 232 | 3.0 | 10.0 | 0.00 | 0.00 | 0.00 | 38 | 1013.5 |
| 20260831222540 | 99 | 205 | 1.0 | 11.0 | 0.00 | 0.00 | 0.00 | 38 | 1013.4 |
| 20260831222040 | 99 | 213 | 3.0 | 11.0 | 0.00 | 0.00 | 0.00 | 38 | 1013.4 |
| 20260831221614 | 99 | 198 | 2.0 | 8.0 | 0.00 | 0.00 | 0.00 | 38 | 1013.4 |
| 20260831221040 | 100 | 200 | 3.0 | 8.0 | 0.00 | 0.00 | 0.00 | 38 | 1013.4 |
| 20260831220544 | 100 | 225 | 2.0 | 9.0 | 0.00 | 0.00 | 0.00 | 38 | 1013.5 |
| 20260831220101 | 100 | 143 | 1.0 | 11.0 | 0.00 | 0.00 | 0.00 | 38 | 1013.4 |
| 20260831215540 | 101 | 273 | 4.0 | 11.0 | 0.00 | 0.00 | 0.00 | 36 | 1013.4 |
| 20260831215039 | 100 | 0 | 1.0 | 9.0 | 0.00 | 0.00 | 0.00 | 36 | 1013.4 |
| 20260831214552 | 100 | 202 | 2.0 | 10.0 | 0.00 | 0.00 | 0.00 | 37 | 1013.4 |
| 20260831214044 | 100 | 236 | 3.0 | 10.0 | 0.00 | 0.00 | 0.00 | 36 | 1013.6 |
| 20260831213540 | 100 | 242 | 4.0 | 10.0 | 0.00 | 0.00 | 0.00 | 36 | 1013.5 |
| 20260831213101 | 100 | 257 | 2.0 | 8.0 | 0.00 | 0.00 | 0.00 | 37 | 1013.4 |
| 20260831212540 | 101 | 241 | 4.0 | 8.0 | 0.00 | 0.00 | 0.00 | 37 | 1013.6 |
| 20260831212041 | 100 | 155 | 1.0 | 8.0 | 0.00 | 0.00 | 0.00 | 39 | 1013.6 |
| 20260831211609 | 100 | 237 | 1.0 | 9.0 | 0.00 | 0.00 | 0.00 | 40 | 1013.6 |
| 20260831211039 | 100 | 197 | 1.0 | 9.0 | 0.00 | 0.00 | 0.00 | 39 | 1013.7 |
| 20260831210543 | 100 | 167 | 2.0 | 9.0 | 0.00 | 0.00 | 0.00 | 39 | 1013.7 |
| 20260831210100 | 101 | 256 | 4.0 | 9.0 | 0.00 | 0.00 | 0.00 | 37 | 1013.7 |
| 20260831205543 | 100 | 236 | 3.0 | 9.0 | 0.00 | 0.00 | 0.00 | 38 | 1013.8 |
| 20260831205043 | 100 | 207 | 4.0 | 10.0 | 0.00 | 0.00 | 0.00 | 39 | 1013.8 |
| 20260831204553 | 100 | 216 | 3.0 | 10.0 | 0.00 | 0.00 | 0.00 | 38 | 1014.0 |
| 20260831204040 | 101 | 246 | 3.0 | 11.0 | 0.00 | 0.00 | 0.00 | 37 | 1013.8 |
| 20260831203541 | 100 | 290 | 2.0 | 11.0 | 0.00 | 0.00 | 0.00 | 38 | 1013.8 |
| 20260831203101 | 100 | 182 | 2.0 | 10.0 | 0.00 | 0.00 | 0.00 | 39 | 1013.9 |
| 20260831202539 | 101 | 171 | 3.0 | 10.0 | 0.00 | 0.00 | 0.00 | 39 | 1013.9 |
| 20260831202042 | 101 | 255 | 4.0 | 12.0 | 0.00 | 0.00 | 0.00 | 37 | 1014.0 |
| 20260831201602 | 100 | 194 | 3.0 | 12.0 | 0.00 | 0.00 | 0.00 | 37 | 1014.0 |
| 20260831201045 | 100 | 193 | 1.0 | 8.0 | 0.00 | 0.00 | 0.00 | 37 | 1014.0 |
| 20260831200541 | 100 | 170 | 0.0 | 7.0 | 0.00 | 0.00 | 0.00 | 40 | 1014.0 |
| 20260831200100 | 100 | 153 | 2.0 | 10.0 | 0.00 | 0.00 | 0.00 | 37 | 1014.0 |
| 20260831195542 | 100 | 145 | 3.0 | 10.0 | 0.00 | 0.00 | 0.00 | 37 | 1014.0 |
| 20260831195044 | 100 | 179 | 4.0 | 12.0 | 0.00 | 0.00 | 0.00 | 36 | 1014.2 |
| 20260831194615 | 100 | 208 | 4.0 | 12.0 | 0.00 | 0.00 | 0.00 | 36 | 1014.2 |
| 20260831194042 | 101 | 225 | 4.0 | 12.0 | 0.00 | 0.00 | 0.00 | 37 | 1014.2 |
| 20260831193544 | 100 | 178 | 2.0 | 11.0 | 0.00 | 0.00 | 0.00 | 37 | 1014.2 |
| 20260831193103 | 100 | 203 | 4.0 | 11.0 | 0.00 | 0.00 | 0.00 | 37 | 1014.1 |